POLYITAN-1

Last updated on Sun Jun 21 2026 00:03:50 GMT+0000 (Coordinated Universal Time)

1 40042U 14033AJ 26170.59745425 .00015082 00000+0 47014-3 0 9992 2 40042 98.0942 197.0866 0008761 134.5443 225.6514 15.33326342653963
UTC large
Height (km)
Speed (km/s)
/
Latitude / Longitude
Inclination (degrees)
Orbital Period (minutes)
Azimuth
Elevation
Range (km)
Doppler Factor

Next 0 passes for location: London (51.5072 / 0.1276)

No passes found over London.
POLYITAN-1